{"data":{"norad_id":69379,"epoch":"2026-09-19T05:31:31.617120Z","epoch_age_seconds":138746,"freshness":"FRESH","line1":"1 69379U 26123AC  26262.23022705  .00018053  00000+0  54401-3 0  9990","line2":"2 69379  53.1565 147.7421 0001064 102.3791 257.7331 15.34407455 16677","mean_motion":15.34407455,"eccentricity":0.0001064,"inclination_deg":53.1565,"raan_deg":147.7421,"arg_perigee_deg":102.3791,"mean_anomaly_deg":257.7331,"bstar":0.00054401,"rev_number":1667,"period_min":93.847302117025,"perigee_km":461.95321942177,"apogee_km":463.40894550972,"semimajor_km":6840.8180824657,"source":"CELESTRAK","updated_at":"2026-09-20T09:00:44.193387Z"}}